Zurück zum Katalog

FENGYUN 1C DEB

LostPO
NORAD 31911·DEBRIS·🇨🇳 China

Gestartet May 10, 1999 von Taiyuan Satellite Launch Center

Loading…

Nächste Überflüge (nächste 24 Stunden)

TLE

VeraltetSource: Space-Track

Epoche: Oct 2, 2022, 10:17 UTC

1 31911U 99025CLN 22275.42902484  .00001092  00000-0  12100-2 0  9999
2 31911  98.7290 129.0954 0540136 148.3093 215.1774 13.23731655739786

Verfolge FENGYUN 1C DEB in Echtzeit mit AllMySat

Download on the App Store